M I D A S
Marine Information and Data Acquisition System
Tripno 2156 of the Zeeleeuw from 2011-08-02 06:40:21 to 2011-08-02 15:04:15
Back to CruiseResearch ActivitiesStationsMapUnderway DataData graphs

EquipmentUnitsComments
TimeDGPSUTC
LatitudeDGPSDM.mWGS84
LongitudeDGPSDM.mWGS84
SpeedMeteo Stationm/sRelative wind speed
DirectionMeteo StationdegRelative wind direction
TemperatureMeteo Stationdeg CelciusAir temperature
PressureMeteo StationPaAtmospheric pressure
HumidityMeteo Station%Relative humidity
Missing or incorrect values are displayed as -999
Metereological data collected by the RV Zeeleeuw from 2011-08-02 06:20:20 to 2011-08-02 16:17:02
                                                                                    Next 1000 lines
Time Latitude Longitude Speed Direction Temperature Pressure Humidity
2011-08-02 06:20:30 51°13.639 2°56.028 -999 282 17.7 101460 46
2011-08-02 06:20:36 51°13.638 2°56.026 -999 25 17.7 101460 47
2011-08-02 06:20:40 51°13.636 2°56.024 -999 281 17.7 101460 47
2011-08-02 06:20:45 51°13.636 2°56.023 -999 327 17.7 101460 47
2011-08-02 06:20:51 51°13.637 2°56.023 -999 281 17.7 101460 47
2011-08-02 06:20:55 51°13.637 2°56.022 -999 321 17.7 101460 47
2011-08-02 06:21:00 51°13.637 2°56.022 -999 281 17.7 101460 47
2011-08-02 06:21:05 51°13.637 2°56.021 -999 320 17.8 101460 47
2011-08-02 06:21:10 51°13.637 2°56.021 -999 281 17.8 101460 47
2011-08-02 06:21:15 51°13.637 2°56.021 -999 325 17.8 101460 47
2011-08-02 06:21:20 51°13.637 2°56.021 -999 281 17.8 101460 47
2011-08-02 06:21:24 51°13.637 2°56.021 -999 329 17.8 101450 47
2011-08-02 06:21:29 51°13.637 2°56.022 -999 281 17.8 101450 47
2011-08-02 06:21:34 51°13.637 2°56.021 -999 326 17.8 101450 47
2011-08-02 06:21:40 51°13.638 2°56.021 -999 281 17.8 101450 47
2011-08-02 06:21:45 51°13.637 2°56.021 -999 331 17.8 101450 47
2011-08-02 06:21:49 51°13.637 2°56.021 -999 281 17.8 101450 47
2011-08-02 06:21:54 51°13.637 2°56.021 -999 325 17.8 101460 47
2011-08-02 06:21:59 51°13.637 2°56.021 -999 281 17.8 101460 47
2011-08-02 06:22:04 51°13.637 2°56.02 -999 329 17.8 101460 47
2011-08-02 06:22:09 51°13.637 2°56.02 -999 281 17.8 101460 47
2011-08-02 06:22:13 51°13.637 2°56.02 -999 335 17.9 101450 47
2011-08-02 06:22:18 51°13.637 2°56.02 -999 281 17.9 101450 47
2011-08-02 06:22:24 51°13.637 2°56.02 -999 323 17.9 101450 47
2011-08-02 06:22:29 51°13.637 2°56.02 -999 281 17.9 101450 47
2011-08-02 06:22:33 51°13.637 2°56.02 -999 330 17.9 101450 47
2011-08-02 06:22:38 51°13.637 2°56.02 -999 281 17.9 101450 47
2011-08-02 06:22:43 51°13.637 2°56.02 -999 321 17.9 101450 47
2011-08-02 06:22:49 51°13.637 2°56.02 -999 281 17.9 101450 47
2011-08-02 06:22:53 51°13.637 2°56.02 -999 331 17.9 101450 47
2011-08-02 06:22:57 51°13.637 2°56.02 -999 281 17.9 101450 47
2011-08-02 06:23:03 51°13.637 2°56.02 -999 323 17.9 101450 45
2011-08-02 06:23:09 51°13.637 2°56.02 -999 282 17.9 101450 45
2011-08-02 06:23:13 51°13.637 2°56.02 -999 329 17.9 101460 47
2011-08-02 06:23:18 51°13.637 2°56.02 -999 282 17.9 101460 47
2011-08-02 06:23:23 51°13.637 2°56.02 -999 326 17.9 101450 47
2011-08-02 06:23:28 51°13.636 2°56.02 -999 282 17.9 101450 47
2011-08-02 06:23:33 51°13.636 2°56.02 -999 324 17.9 101460 47
2011-08-02 06:23:38 51°13.636 2°56.02 -999 281 17.9 101460 47
2011-08-02 06:23:43 51°13.636 2°56.02 -999 330 18 101450 47
2011-08-02 06:23:48 51°13.636 2°56.02 -999 281 18 101450 47
2011-08-02 06:23:53 51°13.636 2°56.02 -999 331 18 101460 47
2011-08-02 06:23:57 51°13.636 2°56.02 -999 281 18 101460 47
2011-08-02 06:24:02 51°13.636 2°56.02 -999 332 18 101450 47
2011-08-02 06:24:07 51°13.636 2°56.02 -999 281 18 101450 47
2011-08-02 06:24:12 51°13.636 2°56.02 -999 327 18 101450 47
2011-08-02 06:24:18 51°13.636 2°56.02 -999 281 18 101450 47
2011-08-02 06:24:23 51°13.636 2°56.02 -999 324 18 101450 47
2011-08-02 06:24:28 51°13.636 2°56.02 -999 281 18 101450 47
2011-08-02 06:24:33 51°13.636 2°56.02 -999 330 18 101450 46
2011-08-02 06:24:38 51°13.636 2°56.02 -999 281 18 101450 46
2011-08-02 06:24:43 51°13.636 2°56.02 -999 326 18 101450 47
2011-08-02 06:24:48 51°13.636 2°56.02 -999 281 18 101450 47
2011-08-02 06:24:53 51°13.636 2°56.02 -999 328 18 101460 46
2011-08-02 06:24:58 51°13.636 2°56.02 -999 281 18 101460 46
2011-08-02 06:25:02 51°13.636 2°56.02 -999 325 18 101460 47
2011-08-02 06:25:08 51°13.636 2°56.02 -999 281 18 101460 47
2011-08-02 06:25:13 51°13.636 2°56.02 -999 327 18 101450 47
2011-08-02 06:25:19 51°13.636 2°56.02 -999 281 18 101450 47
2011-08-02 06:25:23 51°13.636 2°56.02 -999 332 18.1 101450 46
2011-08-02 06:25:28 51°13.636 2°56.02 -999 281 18.1 101450 46
2011-08-02 06:25:33 51°13.636 2°56.02 -999 322 18 101450 46
2011-08-02 06:25:38 51°13.636 2°56.02 -999 281 18 101450 46
2011-08-02 06:25:43 51°13.636 2°56.02 -999 322 18.1 101450 45
2011-08-02 06:25:47 51°13.636 2°56.02 -999 281 18.1 101450 45
2011-08-02 06:25:53 51°13.636 2°56.02 -999 324 18 101450 46
2011-08-02 06:25:58 51°13.636 2°56.02 -999 281 18 101450 46
2011-08-02 06:26:03 51°13.636 2°56.02 -999 325 18.1 101450 46
2011-08-02 06:26:07 51°13.636 2°56.02 -999 281 18.1 101450 46
2011-08-02 06:26:13 51°13.636 2°56.02 -999 330 18.1 101460 46
2011-08-02 06:26:18 51°13.636 2°56.02 -999 281 18.1 101460 46
2011-08-02 06:26:23 51°13.636 2°56.019 -999 322 18.1 101460 46
2011-08-02 06:26:28 51°13.636 2°56.019 -999 281 18.1 101460 46
2011-08-02 06:26:33 51°13.636 2°56.019 -999 329 18.1 101450 46
2011-08-02 06:26:38 51°13.636 2°56.019 -999 281 18.1 101450 46
2011-08-02 06:26:43 51°13.636 2°56.019 -999 326 18.1 101460 46
2011-08-02 06:26:48 51°13.636 2°56.019 -999 281 18.1 101460 46
2011-08-02 06:26:53 51°13.636 2°56.019 -999 331 18.1 101450 46
2011-08-02 06:26:58 51°13.636 2°56.019 -999 281 18.1 101450 46
2011-08-02 06:27:03 51°13.636 2°56.019 -999 333 18.1 101450 47
2011-08-02 06:27:08 51°13.636 2°56.019 -999 281 18.1 101450 47
2011-08-02 06:27:12 51°13.636 2°56.019 -999 332 18.1 101450 47
2011-08-02 06:27:18 51°13.636 2°56.019 -999 281 18.1 101450 47
2011-08-02 06:27:23 51°13.636 2°56.019 -999 322 18.1 101450 47
2011-08-02 06:27:28 51°13.636 2°56.019 -999 281 18.1 101450 47
2011-08-02 06:27:32 51°13.636 2°56.019 -999 321 18.2 101450 46
2011-08-02 06:27:37 51°13.636 2°56.019 -999 281 18.2 101450 46
2011-08-02 06:27:42 51°13.636 2°56.019 -999 327 18.2 101450 46
2011-08-02 06:27:48 51°13.636 2°56.019 -999 281 18.2 101450 46
2011-08-02 06:27:53 51°13.636 2°56.019 -999 327 18.2 101450 46
2011-08-02 06:27:58 51°13.636 2°56.019 -999 281 18.2 101450 46
2011-08-02 06:28:03 51°13.636 2°56.019 -999 324 18.2 101450 46
2011-08-02 06:28:08 51°13.636 2°56.019 -999 281 18.2 101450 46
2011-08-02 06:28:13 51°13.636 2°56.019 -999 321 18.2 101450 46
2011-08-02 06:28:18 51°13.636 2°56.019 -999 282 18.2 101450 46
2011-08-02 06:28:23 51°13.636 2°56.019 -999 320 18.3 101450 45
2011-08-02 06:28:28 51°13.636 2°56.019 -999 281 18.3 101450 45
2011-08-02 06:28:33 51°13.636 2°56.019 -999 323 18.2 101450 46
2011-08-02 06:28:38 51°13.636 2°56.019 -999 281 18.2 101450 46
2011-08-02 06:28:43 51°13.636 2°56.019 -999 333 18.3 101450 46
2011-08-02 06:28:48 51°13.635 2°56.02 -999 282 18.3 101450 46
2011-08-02 06:28:53 51°13.635 2°56.02 -999 325 18.3 101450 46
2011-08-02 06:28:57 51°13.635 2°56.021 -999 282 18.3 101450 46
2011-08-02 06:29:03 51°13.636 2°56.021 -999 334 18.3 101450 46
2011-08-02 06:29:08 51°13.636 2°56.02 -999 281 18.3 101450 46
2011-08-02 06:29:13 51°13.636 2°56.02 -999 333 18.3 101450 46
2011-08-02 06:29:17 51°13.637 2°56.019 -999 281 18.3 101450 46
2011-08-02 06:29:23 51°13.637 2°56.019 -999 327 18.3 101450 46
2011-08-02 06:29:28 51°13.636 2°56.019 -999 281 18.3 101450 46
2011-08-02 06:29:33 51°13.636 2°56.019 -999 325 18.3 101450 46
2011-08-02 06:29:37 51°13.636 2°56.019 -999 281 18.3 101450 46
2011-08-02 06:29:42 51°13.636 2°56.019 -999 327 18.3 101450 46
2011-08-02 06:29:48 51°13.636 2°56.019 -999 282 18.3 101450 46
2011-08-02 06:29:53 51°13.636 2°56.019 -999 326 18.3 101450 46
2011-08-02 06:29:58 51°13.636 2°56.019 -999 281 18.3 101450 46
2011-08-02 06:30:02 51°13.636 2°56.019 -999 326 18.3 101450 46
2011-08-02 06:30:07 51°13.635 2°56.019 -999 281 18.3 101450 46
2011-08-02 06:30:13 51°13.635 2°56.019 -999 326 18.3 101450 46
2011-08-02 06:30:17 51°13.635 2°56.019 -999 281 18.3 101450 46
2011-08-02 06:30:23 51°13.635 2°56.019 -999 329 18.3 101450 46
2011-08-02 06:30:28 51°13.635 2°56.019 -999 281 18.3 101450 46
2011-08-02 06:30:33 51°13.635 2°56.019 -999 320 18.3 101450 46
2011-08-02 06:30:38 51°13.635 2°56.019 -999 281 18.3 101450 46
2011-08-02 06:30:43 51°13.635 2°56.019 -999 329 18.3 101450 46
2011-08-02 06:30:48 51°13.635 2°56.019 -999 281 18.3 101450 46
2011-08-02 06:30:53 51°13.635 2°56.019 -999 328 18.3 101450 46
2011-08-02 06:30:58 51°13.635 2°56.019 -999 281 18.3 101450 46
2011-08-02 06:31:03 51°13.635 2°56.019 -999 324 18.3 101450 44
2011-08-02 06:31:09 51°13.634 2°56.019 -999 281 18.3 101450 44
2011-08-02 06:31:13 51°13.634 2°56.019 -999 324 18.3 101450 46
2011-08-02 06:31:18 51°13.634 2°56.019 -999 281 18.3 101450 46
2011-08-02 06:31:23 51°13.634 2°56.019 -999 329 18.3 101450 46
2011-08-02 06:31:28 51°13.634 2°56.019 -999 281 18.3 101450 46
2011-08-02 06:31:33 51°13.634 2°56.019 -999 329 18.3 101450 46
2011-08-02 06:31:38 51°13.634 2°56.019 -999 281 18.3 101450 46
2011-08-02 06:31:42 51°13.634 2°56.019 -999 329 18.3 101450 46
2011-08-02 06:31:48 51°13.634 2°56.02 -999 281 18.3 101450 46
2011-08-02 06:31:53 51°13.634 2°56.02 -999 332 18.4 101450 46
2011-08-02 06:31:58 51°13.634 2°56.02 -999 281 18.4 101450 46
2011-08-02 06:32:02 51°13.634 2°56.02 -999 322 18.3 101450 46
2011-08-02 06:32:08 51°13.634 2°56.02 -999 281 18.3 101450 46
2011-08-02 06:32:12 51°13.634 2°56.02 -999 320 18.3 101450 46
2011-08-02 06:32:18 51°13.634 2°56.02 -999 281 18.3 101450 46
2011-08-02 06:32:22 51°13.634 2°56.02 -999 323 18.4 101450 46
2011-08-02 06:32:27 51°13.634 2°56.02 -999 281 18.4 101450 46
2011-08-02 06:32:32 51°13.634 2°56.02 -999 328 18.4 101450 46
2011-08-02 06:32:38 51°13.634 2°56.02 -999 281 18.4 101450 46
2011-08-02 06:32:42 51°13.634 2°56.02 -999 323 18.4 101450 46
2011-08-02 06:32:47 51°13.634 2°56.02 -999 281 18.4 101450 46
2011-08-02 06:32:53 51°13.634 2°56.02 -999 327 18.4 101450 46
2011-08-02 06:32:57 51°13.634 2°56.02 -999 281 18.4 101450 46
2011-08-02 06:33:02 51°13.634 2°56.02 -999 329 18.4 101450 46
2011-08-02 06:33:08 51°13.634 2°56.02 -999 281 18.4 101450 46
2011-08-02 06:33:13 51°13.634 2°56.02 -999 319 18.4 101450 46
2011-08-02 06:33:18 51°13.634 2°56.02 -999 281 18.4 101450 46
2011-08-02 06:33:23 51°13.634 2°56.02 -999 326 18.4 101450 45
2011-08-02 06:33:28 51°13.634 2°56.02 -999 281 18.4 101450 45
2011-08-02 06:33:33 51°13.634 2°56.02 -999 322 18.4 101450 46
2011-08-02 06:33:38 51°13.634 2°56.02 -999 281 18.4 101450 46
2011-08-02 06:33:43 51°13.634 2°56.019 -999 326 18.4 101450 44
2011-08-02 06:33:48 51°13.634 2°56.019 -999 281 18.4 101450 44
2011-08-02 06:33:53 51°13.634 2°56.019 -999 323 18.4 101450 46
2011-08-02 06:33:58 51°13.635 2°56.019 -999 281 18.4 101450 46
2011-08-02 06:34:03 51°13.635 2°56.019 -999 327 18.4 101450 46
2011-08-02 06:34:08 51°13.635 2°56.019 -999 281 18.4 101450 46
2011-08-02 06:34:13 51°13.635 2°56.019 -999 319 18.5 101450 46
2011-08-02 06:34:18 51°13.635 2°56.019 -999 281 18.5 101450 46
2011-08-02 06:34:23 51°13.635 2°56.019 -999 324 18.5 101450 46
2011-08-02 06:34:28 51°13.635 2°56.019 -999 281 18.5 101450 46
2011-08-02 06:34:33 51°13.635 2°56.019 -999 327 18.5 101450 46
2011-08-02 06:34:38 51°13.635 2°56.019 -999 281 18.5 101450 46
2011-08-02 06:34:43 51°13.635 2°56.019 -999 324 18.5 101450 46
2011-08-02 06:34:47 51°13.635 2°56.019 -999 281 18.5 101450 46
2011-08-02 06:34:52 51°13.635 2°56.019 -999 320 18.5 101450 45
2011-08-02 06:34:58 51°13.635 2°56.019 -999 281 18.5 101450 45
2011-08-02 06:35:03 51°13.635 2°56.019 -999 317 18.5 101450 45
2011-08-02 06:35:08 51°13.635 2°56.019 -999 281 18.5 101450 45
2011-08-02 06:35:13 51°13.635 2°56.019 -999 321 18.5 101460 46
2011-08-02 06:35:18 51°13.635 2°56.019 -999 281 18.5 101460 46
2011-08-02 06:35:23 51°13.635 2°56.019 -999 326 18.5 101450 46
2011-08-02 06:35:28 51°13.635 2°56.019 -999 281 18.5 101450 46
2011-08-02 06:35:33 51°13.635 2°56.019 -999 324 18.6 101450 46
2011-08-02 06:35:38 51°13.635 2°56.019 -999 281 18.6 101450 46
2011-08-02 06:35:43 51°13.635 2°56.019 -999 318 18.6 101450 46
2011-08-02 06:35:48 51°13.635 2°56.019 -999 281 18.6 101450 46
2011-08-02 06:35:52 51°13.635 2°56.019 -999 328 18.6 101450 46
2011-08-02 06:35:58 51°13.635 2°56.019 -999 281 18.6 101450 46
2011-08-02 06:36:03 51°13.635 2°56.019 -999 25 18.6 101460 46
2011-08-02 06:36:08 51°13.636 2°56.019 -999 281 18.6 101460 46
2011-08-02 06:36:12 51°13.636 2°56.019 -999 25 18.6 101450 46
2011-08-02 06:36:18 51°13.636 2°56.019 -999 281 18.6 101450 46
2011-08-02 06:36:23 51°13.636 2°56.019 -999 25 18.7 101460 44
2011-08-02 06:36:28 51°13.636 2°56.019 -999 281 18.7 101460 44
2011-08-02 06:36:32 51°13.636 2°56.019 -999 25 18.7 101450 46
2011-08-02 06:36:38 51°13.636 2°56.019 -999 281 18.7 101450 46
2011-08-02 06:36:43 51°13.636 2°56.019 -999 325 18.7 101460 46
2011-08-02 06:36:48 51°13.636 2°56.019 -999 281 18.7 101460 46
2011-08-02 06:36:52 51°13.636 2°56.019 -999 323 18.7 101450 46
2011-08-02 06:36:57 51°13.636 2°56.019 -999 281 18.7 101450 46
2011-08-02 06:37:03 51°13.636 2°56.019 -999 317 18.7 101450 46
2011-08-02 06:37:08 51°13.636 2°56.019 -999 281 18.7 101450 46
2011-08-02 06:37:13 51°13.636 2°56.019 -999 324 18.7 101450 45
2011-08-02 06:37:18 51°13.636 2°56.019 -999 282 18.7 101450 45
2011-08-02 06:37:23 51°13.636 2°56.019 -999 25 18.8 101460 45
2011-08-02 06:37:28 51°13.636 2°56.019 -999 281 18.8 101460 45
2011-08-02 06:37:33 51°13.636 2°56.019 -999 25 18.8 101460 45
2011-08-02 06:37:38 51°13.636 2°56.019 -999 281 18.8 101460 45
2011-08-02 06:37:43 51°13.636 2°56.019 -999 325 18.8 101450 45
2011-08-02 06:37:48 51°13.636 2°56.019 -999 281 18.8 101450 45
2011-08-02 06:37:53 51°13.636 2°56.019 -999 25 18.8 101450 45
2011-08-02 06:37:57 51°13.636 2°56.019 -999 281 18.8 101450 45
2011-08-02 06:38:03 51°13.636 2°56.019 -999 326 18.8 101450 45
2011-08-02 06:38:09 51°13.636 2°56.019 -999 281 18.8 101450 45
2011-08-02 06:38:13 51°13.636 2°56.019 -999 329 18.8 101450 45
2011-08-02 06:38:17 51°13.636 2°56.019 -999 281 18.8 101450 45
2011-08-02 06:38:23 51°13.636 2°56.019 -999 328 18.8 101450 45
2011-08-02 06:38:28 51°13.636 2°56.018 -999 281 18.8 101450 45
2011-08-02 06:38:33 51°13.636 2°56.018 -999 334 18.8 101450 45
2011-08-02 06:38:38 51°13.636 2°56.019 -999 281 18.8 101450 45
2011-08-02 06:38:42 51°13.636 2°56.019 -999 332 18.8 101450 45
2011-08-02 06:38:48 51°13.636 2°56.018 -999 281 18.8 101450 45
2011-08-02 06:38:53 51°13.636 2°56.018 -999 325 18.9 101450 45
2011-08-02 06:38:58 51°13.636 2°56.018 -999 281 18.9 101450 45
2011-08-02 06:39:02 51°13.636 2°56.019 -999 328 18.9 101450 44
2011-08-02 06:39:08 51°13.636 2°56.018 -999 281 18.9 101450 44
2011-08-02 06:39:13 51°13.636 2°56.019 -999 322 18.9 101450 45
2011-08-02 06:39:18 51°13.636 2°56.019 -999 281 18.9 101450 45
2011-08-02 06:39:22 51°13.636 2°56.018 -999 329 18.9 101450 45
2011-08-02 06:39:27 51°13.636 2°56.018 -999 281 18.9 101450 45
2011-08-02 06:39:34 51°13.636 2°56.019 -999 334 18.9 101450 45
2011-08-02 06:39:39 51°13.636 2°56.018 -999 281 18.9 101450 45
2011-08-02 06:39:43 51°13.636 2°56.018 -999 327 18.9 101450 45
2011-08-02 06:39:48 51°13.636 2°56.018 -999 281 18.9 101450 45
2011-08-02 06:39:53 51°13.636 2°56.018 -999 335 18.9 101450 45
2011-08-02 06:39:58 51°13.636 2°56.018 -999 281 18.9 101450 45
2011-08-02 06:40:03 51°13.636 2°56.018 -999 332 18.9 101450 45
2011-08-02 06:40:07 51°13.636 2°56.018 -999 281 18.9 101450 45
2011-08-02 06:40:13 51°13.636 2°56.018 -999 328 18.9 101450 45
2011-08-02 06:40:18 51°13.636 2°56.018 -999 281 18.9 101450 45
2011-08-02 06:40:23 51°13.636 2°56.018 -999 334 18.9 101450 45
2011-08-02 06:40:27 51°13.636 2°56.018 -999 281 18.9 101450 45
2011-08-02 06:40:33 51°13.636 2°56.018 -999 323 18.9 101450 45
2011-08-02 06:40:38 51°13.636 2°56.018 -999 281 18.9 101450 45
2011-08-02 06:40:42 51°13.636 2°56.018 -999 321 18.9 101450 45
2011-08-02 06:40:48 51°13.636 2°56.018 -999 281 18.9 101450 45
2011-08-02 06:40:53 51°13.636 2°56.018 -999 322 18.9 101450 45
2011-08-02 06:40:58 51°13.636 2°56.018 -999 282 18.9 101450 45
2011-08-02 06:41:03 51°13.635 2°56.018 -999 319 18.9 101450 45
2011-08-02 06:41:08 51°13.635 2°56.018 -999 281 18.9 101450 45
2011-08-02 06:41:13 51°13.635 2°56.017 -999 333 18.9 101450 45
2011-08-02 06:41:18 51°13.635 2°56.017 -999 281 18.9 101450 45
2011-08-02 06:41:23 51°13.635 2°56.017 -999 324 18.9 101450 45
2011-08-02 06:41:28 51°13.635 2°56.017 -999 282 18.9 101450 45
2011-08-02 06:41:32 51°13.635 2°56.017 -999 25 19 101450 45
2011-08-02 06:41:38 51°13.636 2°56.017 -999 281 19 101450 45
2011-08-02 06:41:43 51°13.636 2°56.016 -999 25 19 101450 43
2011-08-02 06:41:48 51°13.636 2°56.016 -999 281 19 101450 43
2011-08-02 06:41:52 51°13.636 2°56.016 -999 325 19 101450 45
2011-08-02 06:41:58 51°13.636 2°56.016 -999 281 19 101450 45
2011-08-02 06:42:03 51°13.636 2°56.016 -999 320 19 101450 45
2011-08-02 06:42:08 51°13.636 2°56.016 -999 281 19 101450 45
2011-08-02 06:42:12 51°13.636 2°56.015 -999 323 19 101450 45
2011-08-02 06:42:18 51°13.636 2°56.015 -999 281 19 101450 45
2011-08-02 06:42:23 51°13.636 2°56.015 -999 320 19 101450 45
2011-08-02 06:42:28 51°13.636 2°56.015 -999 281 19 101450 45
2011-08-02 06:42:33 51°13.636 2°56.015 -999 320 19 101450 45
2011-08-02 06:42:38 51°13.635 2°56.015 -999 281 19 101450 45
2011-08-02 06:42:43 51°13.635 2°56.015 -999 326 19 101450 45
2011-08-02 06:42:48 51°13.635 2°56.014 -999 282 19 101450 45
2011-08-02 06:42:53 51°13.635 2°56.014 -999 25 19.1 101450 45
2011-08-02 06:42:58 51°13.635 2°56.014 -999 281 19.1 101450 45
2011-08-02 06:43:03 51°13.635 2°56.014 -999 25 19.1 101450 45
2011-08-02 06:43:08 51°13.635 2°56.014 -999 281 19.1 101450 45
2011-08-02 06:43:13 51°13.635 2°56.014 -999 25 19.1 101450 45
2011-08-02 06:43:18 51°13.635 2°56.013 -999 281 19.1 101450 45
2011-08-02 06:43:23 51°13.635 2°56.013 -999 25 19.1 101450 45
2011-08-02 06:43:28 51°13.635 2°56.013 -999 281 19.1 101450 45
2011-08-02 06:43:33 51°13.635 2°56.013 -999 320 19.1 101450 45
2011-08-02 06:43:38 51°13.635 2°56.013 -999 281 19.1 101450 45
2011-08-02 06:43:43 51°13.635 2°56.013 -999 320 19.2 101450 45
2011-08-02 06:43:48 51°13.635 2°56.012 -999 281 19.2 101450 45
2011-08-02 06:43:53 51°13.634 2°56.012 -999 25 19.2 101450 45
2011-08-02 06:43:58 51°13.634 2°56.012 -999 281 19.2 101450 45
2011-08-02 06:44:03 51°13.634 2°56.013 -999 25 19.2 101450 45
2011-08-02 06:44:08 51°13.634 2°56.013 -999 281 19.2 101450 45
2011-08-02 06:44:13 51°13.633 2°56.013 -999 25 19.2 101450 45
2011-08-02 06:44:18 51°13.633 2°56.014 -999 281 19.2 101450 45
2011-08-02 06:44:23 51°13.632 2°56.015 -999 25 19.2 101450 43
2011-08-02 06:44:28 51°13.631 2°56.015 -999 281 19.2 101450 43
2011-08-02 06:44:33 51°13.63 2°56.017 -999 25 19.3 101450 45
2011-08-02 06:44:37 51°13.629 2°56.018 -999 281 19.3 101450 45
2011-08-02 06:44:43 51°13.628 2°56.02 -999 25 19.3 101450 45
2011-08-02 06:44:48 51°13.626 2°56.022 -999 281 19.3 101450 45
2011-08-02 06:44:54 51°13.624 2°56.025 -999 320 19.3 101450 45
2011-08-02 06:44:58 51°13.623 2°56.027 -999 281 19.3 101450 45
2011-08-02 06:45:03 51°13.62 2°56.03 -999 25 19.3 101450 45
2011-08-02 06:45:08 51°13.618 2°56.033 -999 281 19.3 101450 45
2011-08-02 06:45:13 51°13.616 2°56.037 0.1 323 19.3 101450 44
2011-08-02 06:45:18 51°13.613 2°56.04 0.6 285 19.3 101450 44
2011-08-02 06:45:22 51°13.611 2°56.043 0.6 318 19.3 101450 44
2011-08-02 06:45:29 51°13.607 2°56.049 0.7 278 19.3 101450 44
2011-08-02 06:45:32 51°13.605 2°56.052 0.9 319 19.3 101450 44
2011-08-02 06:45:37 51°13.602 2°56.056 0.2 281 19.3 101450 44
2011-08-02 06:45:42 51°13.599 2°56.06 0.1 321 19.3 101450 44
2011-08-02 06:45:47 51°13.596 2°56.065 0.3 282 19.3 101450 44
2011-08-02 06:45:53 51°13.592 2°56.07 1.4 320 19.3 101450 44
2011-08-02 06:45:58 51°13.589 2°56.074 1.7 286 19.3 101450 44
2011-08-02 06:46:03 51°13.586 2°56.079 1.6 319 19.3 101450 44
2011-08-02 06:46:08 51°13.583 2°56.083 1.4 277 19.3 101450 44
2011-08-02 06:46:13 51°13.58 2°56.087 2.3 320 19.3 101450 43
2011-08-02 06:46:18 51°13.577 2°56.091 1.6 280 19.3 101450 43
2011-08-02 06:46:23 51°13.574 2°56.095 0.9 318 19.3 101450 43
2011-08-02 06:46:27 51°13.572 2°56.099 1.7 284 19.3 101450 43
2011-08-02 06:46:33 51°13.569 2°56.103 1.5 321 19.3 101450 44
2011-08-02 06:46:39 51°13.566 2°56.108 1.8 279 19.3 101450 44
2011-08-02 06:46:43 51°13.564 2°56.111 2.2 318 19.2 101450 44
2011-08-02 06:46:48 51°13.562 2°56.115 0.6 282 19.2 101450 44
2011-08-02 06:46:52 51°13.56 2°56.118 2.4 318 19.2 101440 44
2011-08-02 06:46:58 51°13.558 2°56.123 1.4 281 19.2 101440 44
2011-08-02 06:47:03 51°13.556 2°56.127 0.7 316 19.2 101450 42
2011-08-02 06:47:08 51°13.554 2°56.13 0.7 277 19.2 101450 42
2011-08-02 06:47:12 51°13.552 2°56.133 1 316 19.2 101450 44
2011-08-02 06:47:18 51°13.55 2°56.138 1.5 283 19.2 101450 44
2011-08-02 06:47:23 51°13.548 2°56.142 1.5 318 19.2 101440 44
2011-08-02 06:47:28 51°13.547 2°56.145 1.3 284 19.2 101440 44
2011-08-02 06:47:32 51°13.545 2°56.148 1.3 317 19.2 101440 44
2011-08-02 06:47:38 51°13.544 2°56.153 0.8 286 19.2 101440 44
2011-08-02 06:47:43 51°13.542 2°56.157 0.4 317 19.1 101440 44
2011-08-02 06:47:48 51°13.541 2°56.16 0.7 276 19.1 101440 44
2011-08-02 06:47:53 51°13.54 2°56.164 1.5 318 19.1 101450 44
2011-08-02 06:47:58 51°13.539 2°56.168 1.3 280 19.1 101450 44
2011-08-02 06:48:03 51°13.538 2°56.172 1.3 321 19.1 101440 45
2011-08-02 06:48:08 51°13.537 2°56.177 1.7 282 19.1 101440 45
2011-08-02 06:48:13 51°13.536 2°56.181 1.7 326 19.1 101450 44
2011-08-02 06:48:18 51°13.536 2°56.185 2.2 277 19.1 101450 44
2011-08-02 06:48:23 51°13.536 2°56.19 1.8 329 19.1 101440 44
2011-08-02 06:48:28 51°13.536 2°56.194 2.7 278 19.1 101440 44
2011-08-02 06:48:33 51°13.536 2°56.198 3.2 332 19.1 101440 44
2011-08-02 06:48:38 51°13.536 2°56.203 2.7 279 19.1 101440 44
2011-08-02 06:48:43 51°13.537 2°56.207 2.4 332 19 101440 45
2011-08-02 06:48:48 51°13.537 2°56.211 2 283 19 101440 45
2011-08-02 06:48:52 51°13.538 2°56.214 2.2 334 19 101440 44
2011-08-02 06:48:58 51°13.539 2°56.219 2.5 279 19 101440 44
2011-08-02 06:49:04 51°13.54 2°56.224 2 338 19 101440 44
2011-08-02 06:49:08 51°13.541 2°56.226 1.8 280 19 101440 44
2011-08-02 06:49:12 51°13.542 2°56.229 1.6 335 19 101440 44
2011-08-02 06:49:18 51°13.544 2°56.233 1 285 19 101440 44
2011-08-02 06:49:24 51°13.545 2°56.237 0.7 339 19 101440 45
2011-08-02 06:49:29 51°13.546 2°56.24 0.9 284 19 101440 45
2011-08-02 06:49:33 51°13.547 2°56.242 0.5 344 18.9 101440 45
2011-08-02 06:49:38 51°13.548 2°56.244 0.3 275 18.9 101440 45
2011-08-02 06:49:43 51°13.549 2°56.245 0.2 349 18.9 101450 42
2011-08-02 06:49:49 51°13.55 2°56.247 0.1 351 18.9 101450 42
2011-08-02 06:49:53 51°13.55 2°56.247 0.3 356 18.9 101450 44
2011-08-02 06:49:58 51°13.549 2°56.247 0.1 356 18.9 101450 44
2011-08-02 06:50:03 51°13.549 2°56.247 0.1 358 18.9 101450 44
2011-08-02 06:50:08 51°13.548 2°56.246 -999 354 18.9 101450 44
2011-08-02 06:50:13 51°13.547 2°56.244 -999 354 18.8 101440 44
2011-08-02 06:50:18 51°13.546 2°56.242 -999 357 18.8 101440 44
2011-08-02 06:50:23 51°13.545 2°56.241 -999 352 18.8 101450 45
2011-08-02 06:50:29 51°13.545 2°56.24 1.3 278 18.8 101450 45
2011-08-02 06:50:35 51°13.546 2°56.241 0.8 350 18.8 101450 45
2011-08-02 06:50:41 51°13.548 2°56.242 0.2 355 18.8 101450 45
2011-08-02 06:50:46 51°13.549 2°56.243 0.1 351 18.8 101440 45
2011-08-02 06:50:51 51°13.55 2°56.244 0.1 356 18.8 101440 45
2011-08-02 06:50:56 51°13.55 2°56.244 0.1 357 18.8 101440 45
2011-08-02 06:51:01 51°13.551 2°56.244 -999 358 18.8 101440 45
2011-08-02 06:51:06 51°13.551 2°56.244 -999 2 18.7 101450 45
2011-08-02 06:51:11 51°13.55 2°56.244 0.1 358 18.7 101450 45
2011-08-02 06:51:16 51°13.55 2°56.244 0.1 14 18.7 101450 45
2011-08-02 06:51:21 51°13.549 2°56.243 0.1 17 18.7 101450 45
2011-08-02 06:51:26 51°13.548 2°56.243 -999 22 18.7 101450 45
2011-08-02 06:51:31 51°13.547 2°56.243 -999 20 18.7 101450 45
2011-08-02 06:51:35 51°13.546 2°56.242 0.2 22 18.7 101450 45
2011-08-02 06:51:41 51°13.544 2°56.241 0.5 24 18.7 101450 45
2011-08-02 06:51:46 51°13.543 2°56.241 0.1 17 18.7 101450 45
2011-08-02 06:51:51 51°13.542 2°56.24 0.1 15 18.7 101450 45
2011-08-02 06:51:56 51°13.542 2°56.24 0.1 13 18.7 101450 45
2011-08-02 06:52:01 51°13.543 2°56.24 0.2 12 18.7 101450 45
2011-08-02 06:52:06 51°13.544 2°56.24 0.1 8 18.7 101450 45
2011-08-02 06:52:11 51°13.545 2°56.24 0.2 7 18.7 101450 45
2011-08-02 06:52:16 51°13.546 2°56.239 0.1 11 18.7 101450 45
2011-08-02 06:52:21 51°13.546 2°56.239 0.5 16 18.7 101450 45
2011-08-02 06:52:26 51°13.546 2°56.24 1 26 18.6 101450 44
2011-08-02 06:52:30 51°13.545 2°56.24 1.1 29 18.6 101450 44
2011-08-02 06:52:36 51°13.543 2°56.241 0.8 29 18.6 101450 46
2011-08-02 06:52:41 51°13.541 2°56.243 0.2 37 18.6 101450 46
2011-08-02 06:52:46 51°13.539 2°56.244 0.7 34 18.6 101450 46
2011-08-02 06:52:50 51°13.537 2°56.245 1 37 18.6 101450 46
2011-08-02 06:52:56 51°13.534 2°56.248 1.6 34 18.6 101450 46
2011-08-02 06:53:01 51°13.531 2°56.249 0.9 36 18.6 101450 46
2011-08-02 06:53:07 51°13.529 2°56.251 0.2 38 18.6 101450 46
2011-08-02 06:53:10 51°13.527 2°56.252 0.6 37 18.6 101450 46
2011-08-02 06:53:16 51°13.525 2°56.253 0.4 30 18.6 101450 45
2011-08-02 06:53:22 51°13.523 2°56.254 0.2 32 18.6 101450 45
2011-08-02 06:53:27 51°13.522 2°56.254 1.3 24 18.6 101450 46
2011-08-02 06:53:31 51°13.523 2°56.254 0.2 23 18.6 101450 46
2011-08-02 06:53:36 51°13.524 2°56.252 0.1 19 18.6 101450 46
2011-08-02 06:53:41 51°13.525 2°56.25 0.1 21 18.6 101450 46
2011-08-02 06:53:47 51°13.528 2°56.246 -999 22 18.6 101450 46
2011-08-02 06:53:51 51°13.529 2°56.242 -999 23 18.6 101450 46
2011-08-02 06:53:56 51°13.532 2°56.237 -999 25 18.6 101450 46
2011-08-02 06:54:02 51°13.534 2°56.23 -999 22 18.6 101450 46
2011-08-02 06:54:07 51°13.536 2°56.223 -999 20 18.6 101450 46
2011-08-02 06:54:11 51°13.538 2°56.217 -999 19 18.6 101450 46
2011-08-02 06:54:16 51°13.541 2°56.209 -999 19 18.6 101450 46
2011-08-02 06:54:21 51°13.543 2°56.2 -999 356 18.6 101450 46
2011-08-02 06:54:26 51°13.545 2°56.19 -999 356 18.6 101450 46
2011-08-02 06:54:31 51°13.548 2°56.18 -999 356 18.6 101450 46
2011-08-02 06:54:35 51°13.55 2°56.172 -999 6 18.6 101450 46
2011-08-02 06:54:40 51°13.553 2°56.161 -999 355 18.6 101450 46
2011-08-02 06:54:45 51°13.556 2°56.149 -999 356 18.6 101450 46
2011-08-02 06:54:50 51°13.559 2°56.138 -999 354 18.6 101450 46
2011-08-02 06:54:55 51°13.562 2°56.126 -999 353 18.6 101450 46
2011-08-02 06:55:00 51°13.566 2°56.114 -999 354 18.6 101450 46
2011-08-02 06:55:05 51°13.57 2°56.101 -999 353 18.6 101450 45
2011-08-02 06:55:10 51°13.574 2°56.089 -999 351 18.6 101450 45
2011-08-02 06:55:15 51°13.578 2°56.077 -999 350 18.6 101450 46
2011-08-02 06:55:19 51°13.582 2°56.067 -999 281 18.6 101450 46
2011-08-02 06:55:24 51°13.587 2°56.055 -999 347 18.6 101450 46
2011-08-02 06:55:29 51°13.592 2°56.042 -999 281 18.6 101450 46
2011-08-02 06:55:34 51°13.597 2°56.03 -999 340 18.6 101450 46
2011-08-02 06:55:39 51°13.602 2°56.018 -999 281 18.6 101450 46
2011-08-02 06:55:44 51°13.608 2°56.005 -999 338 18.5 101450 46
2011-08-02 06:55:49 51°13.613 2°55.993 -999 281 18.5 101450 46
2011-08-02 06:55:54 51°13.619 2°55.98 -999 334 18.5 101450 46
2011-08-02 06:55:59 51°13.624 2°55.968 -999 281 18.5 101450 46
2011-08-02 06:56:03 51°13.629 2°55.958 -999 339 18.5 101450 46
2011-08-02 06:56:09 51°13.635 2°55.942 -999 281 18.5 101450 46
2011-08-02 06:56:13 51°13.64 2°55.932 -999 345 18.5 101450 46
2011-08-02 06:56:18 51°13.646 2°55.919 -999 281 18.5 101450 46
2011-08-02 06:56:23 51°13.652 2°55.907 -999 339 18.5 101450 46
2011-08-02 06:56:28 51°13.657 2°55.894 -999 281 18.5 101450 46
2011-08-02 06:56:33 51°13.663 2°55.881 -999 340 18.5 101450 46
2011-08-02 06:56:38 51°13.669 2°55.868 -999 281 18.5 101450 46
2011-08-02 06:56:43 51°13.675 2°55.855 -999 335 18.5 101450 46
2011-08-02 06:56:49 51°13.682 2°55.839 -999 281 18.5 101450 46
2011-08-02 06:56:54 51°13.688 2°55.826 -999 339 18.5 101450 46
2011-08-02 06:56:59 51°13.694 2°55.813 -999 281 18.5 101450 46
2011-08-02 06:57:04 51°13.7 2°55.8 -999 339 18.5 101450 46
2011-08-02 06:57:09 51°13.707 2°55.786 -999 281 18.5 101450 46
2011-08-02 06:57:14 51°13.713 2°55.773 -999 334 18.5 101450 46
2011-08-02 06:57:19 51°13.719 2°55.76 0.1 282 18.5 101450 46
2011-08-02 06:57:23 51°13.725 2°55.749 0.1 332 18.5 101450 46
2011-08-02 06:57:28 51°13.732 2°55.736 0.1 281 18.5 101450 46
2011-08-02 06:57:33 51°13.739 2°55.724 -999 345 18.5 101450 46
2011-08-02 06:57:39 51°13.749 2°55.71 0.7 282 18.5 101450 46
2011-08-02 06:57:43 51°13.755 2°55.701 1 340 18.5 101450 45
2011-08-02 06:57:48 51°13.763 2°55.689 0.9 282 18.5 101450 45
2011-08-02 06:57:53 51°13.772 2°55.679 1.3 340 18.5 101450 46
2011-08-02 06:57:59 51°13.782 2°55.667 1.1 284 18.5 101450 46
2011-08-02 06:58:03 51°13.789 2°55.659 1.8 340 18.5 101450 46
2011-08-02 06:58:09 51°13.8 2°55.648 1.4 284 18.5 101450 46
2011-08-02 06:58:14 51°13.809 2°55.64 1.7 343 18.5 101450 46
2011-08-02 06:58:19 51°13.819 2°55.632 1.8 277 18.5 101450 46
2011-08-02 06:58:25 51°13.83 2°55.623 2.6 348 18.5 101450 47
2011-08-02 06:58:31 51°13.842 2°55.615 2 282 18.5 101450 47
2011-08-02 06:58:35 51°13.85 2°55.609 1.2 348 18.5 101450 45
2011-08-02 06:58:40 51°13.86 2°55.603 1.3 350 18.5 101450 45
2011-08-02 06:58:46 51°13.872 2°55.595 2.2 345 18.5 101450 45
2011-08-02 06:58:51 51°13.882 2°55.589 1.2 283 18.5 101450 45
2011-08-02 06:58:55 51°13.89 2°55.583 1.6 342 18.5 101450 45
2011-08-02 06:59:00 51°13.901 2°55.576 1.7 281 18.5 101450 45
2011-08-02 06:59:05 51°13.911 2°55.569 2.2 349 18.5 101450 46
2011-08-02 06:59:11 51°13.924 2°55.561 2.1 276 18.5 101450 46
2011-08-02 06:59:15 51°13.932 2°55.555 2.2 351 18.5 101450 46
2011-08-02 06:59:20 51°13.943 2°55.548 2.4 350 18.5 101450 46
2011-08-02 06:59:25 51°13.954 2°55.541 2.3 350 18.5 101440 46
2011-08-02 06:59:31 51°13.967 2°55.533 2.6 279 18.5 101440 46
2011-08-02 06:59:35 51°13.975 2°55.527 2 347 18.5 101450 46
2011-08-02 06:59:41 51°13.988 2°55.519 2 280 18.5 101450 46
2011-08-02 06:59:46 51°13.999 2°55.511 2.5 343 18.5 101440 45
2011-08-02 06:59:51 51°14.01 2°55.504 1.4 344 18.5 101440 45
2011-08-02 06:59:55 51°14.019 2°55.498 0.3 349 18.5 101450 46
2011-08-02 07:00:00 51°14.03 2°55.491 0.1 281 18.5 101450 46
2011-08-02 07:00:05 51°14.041 2°55.484 0.1 346 18.5 101450 46
2011-08-02 07:00:10 51°14.052 2°55.476 -999 281 18.5 101450 46
2011-08-02 07:00:15 51°14.063 2°55.469 -999 347 18.4 101450 46
2011-08-02 07:00:19 51°14.072 2°55.463 0.1 277 18.4 101450 46
2011-08-02 07:00:25 51°14.085 2°55.454 0.5 348 18.4 101450 45
2011-08-02 07:00:30 51°14.096 2°55.446 0.2 281 18.4 101450 45
2011-08-02 07:00:35 51°14.107 2°55.437 0.1 348 18.4 101450 46
2011-08-02 07:00:39 51°14.116 2°55.431 -999 281 18.4 101450 46
2011-08-02 07:00:44 51°14.127 2°55.422 -999 348 18.4 101450 46
2011-08-02 07:00:50 51°14.139 2°55.411 -999 349 18.4 101450 46
2011-08-02 07:00:55 51°14.15 2°55.402 -999 345 18.4 101450 46
2011-08-02 07:00:59 51°14.159 2°55.395 -999 281 18.4 101450 46
2011-08-02 07:01:04 51°14.169 2°55.385 -999 339 18.3 101450 46
2011-08-02 07:01:10 51°14.182 2°55.374 -999 281 18.3 101450 46
2011-08-02 07:01:14 51°14.191 2°55.367 0.1 342 18.3 101450 46
2011-08-02 07:01:19 51°14.202 2°55.357 0.1 281 18.3 101450 46
2011-08-02 07:01:24 51°14.213 2°55.347 -999 338 18.3 101450 46
2011-08-02 07:01:29 51°14.223 2°55.338 0.1 276 18.3 101450 46
2011-08-02 07:01:34 51°14.235 2°55.328 2.1 334 18.3 101450 46
2011-08-02 07:01:39 51°14.246 2°55.318 1.1 281 18.3 101450 46
2011-08-02 07:01:44 51°14.258 2°55.307 0.9 345 18.4 101450 46
2011-08-02 07:01:49 51°14.269 2°55.297 0.5 282 18.4 101450 46
2011-08-02 07:01:55 51°14.283 2°55.284 0.2 348 18.3 101450 46
2011-08-02 07:01:59 51°14.293 2°55.275 0.1 281 18.3 101450 46
2011-08-02 07:02:04 51°14.305 2°55.263 0.1 338 18.4 101450 47
2011-08-02 07:02:10 51°14.319 2°55.249 0.2 281 18.4 101450 47
2011-08-02 07:02:15 51°14.331 2°55.238 0.1 337 18.4 101450 46
2011-08-02 07:02:20 51°14.344 2°55.226 0.1 282 18.4 101450 46
2011-08-02 07:02:26 51°14.359 2°55.212 1.2 338 18.4 101450 46
2011-08-02 07:02:31 51°14.371 2°55.2 2 279 18.4 101450 46
2011-08-02 07:02:35 51°14.381 2°55.191 2.6 336 18.3 101450 46
2011-08-02 07:02:40 51°14.394 2°55.178 2.4 277 18.3 101450 46
2011-08-02 07:02:46 51°14.409 2°55.162 2.4 338 18.4 101450 46
2011-08-02 07:02:51 51°14.421 2°55.149 2.5 282 18.4 101450 46
2011-08-02 07:02:55 51°14.431 2°55.139 2.4 340 18.4 101440 47
2011-08-02 07:03:00 51°14.444 2°55.125 2.8 280 18.4 101440 47
2011-08-02 07:03:05 51°14.456 2°55.111 2.9 340 18.4 101450 45
2011-08-02 07:03:11 51°14.472 2°55.094 3.7 279 18.4 101450 45
2011-08-02 07:03:15 51°14.482 2°55.082 3.4 342 18.4 101450 47
2011-08-02 07:03:20 51°14.495 2°55.068 3.7 279 18.4 101450 47
2011-08-02 07:03:24 51°14.505 2°55.055 3.5 338 18.4 101450 46
2011-08-02 07:03:30 51°14.521 2°55.037 3.4 285 18.4 101450 46
2011-08-02 07:03:34 51°14.531 2°55.024 4.5 336 18.4 101450 46
2011-08-02 07:03:39 51°14.543 2°55.006 4.2 278 18.4 101450 46
2011-08-02 07:03:43 51°14.553 2°54.99 5.1 334 18.5 101450 46
2011-08-02 07:03:48 51°14.565 2°54.97 4.1 278 18.5 101450 46
2011-08-02 07:03:53 51°14.577 2°54.951 3.8 334 18.5 101450 47
2011-08-02 07:03:58 51°14.59 2°54.932 4.2 278 18.5 101450 47
2011-08-02 07:04:03 51°14.603 2°54.914 4.4 337 18.5 101450 46
2011-08-02 07:04:07 51°14.613 2°54.899 4 286 18.5 101450 46
2011-08-02 07:04:12 51°14.627 2°54.881 3.5 335 18.6 101450 47
2011-08-02 07:04:17 51°14.64 2°54.863 3.7 285 18.6 101450 47
2011-08-02 07:04:22 51°14.654 2°54.846 4.5 339 18.6 101450 46
2011-08-02 07:04:27 51°14.668 2°54.829 3.4 285 18.6 101450 46
2011-08-02 07:04:32 51°14.682 2°54.812 3.4 336 18.6 101440 47
2011-08-02 07:04:38 51°14.698 2°54.791 3.5 279 18.6 101440 47
2011-08-02 07:04:42 51°14.71 2°54.777 3.8 338 18.6 101450 47
2011-08-02 07:04:47 51°14.724 2°54.761 3.8 285 18.6 101450 47
2011-08-02 07:04:52 51°14.738 2°54.744 4 339 18.6 101450 46
2011-08-02 07:04:57 51°14.752 2°54.728 3.8 279 18.6 101450 46
2011-08-02 07:05:02 51°14.767 2°54.712 4.1 337 18.6 101450 46
2011-08-02 07:05:07 51°14.781 2°54.696 4.8 278 18.6 101450 46
2011-08-02 07:05:12 51°14.796 2°54.681 4.7 338 18.6 101450 46
2011-08-02 07:05:17 51°14.81 2°54.665 4.2 280 18.6 101450 46
2011-08-02 07:05:22 51°14.825 2°54.65 4.1 337 18.6 101450 47
2011-08-02 07:05:27 51°14.839 2°54.633 4.5 277 18.6 101450 47
2011-08-02 07:05:32 51°14.853 2°54.617 4.6 337 18.6 101450 47
2011-08-02 07:05:37 51°14.868 2°54.6 4.3 284 18.6 101450 47
2011-08-02 07:05:42 51°14.882 2°54.583 4.2 339 18.6 101440 45
2011-08-02 07:05:47 51°14.895 2°54.565 4.1 277 18.6 101440 45
2011-08-02 07:05:52 51°14.909 2°54.547 4.1 339 18.6 101450 47
2011-08-02 07:05:57 51°14.923 2°54.528 3.7 279 18.6 101450 47
2011-08-02 07:06:02 51°14.936 2°54.51 4.1 339 18.6 101450 47
2011-08-02 07:06:07 51°14.949 2°54.491 3.8 279 18.6 101450 47
2011-08-02 07:06:12 51°14.962 2°54.472 4.1 340 18.6 101450 46
2011-08-02 07:06:18 51°14.978 2°54.449 3.7 283 18.6 101450 46
2011-08-02 07:06:22 51°14.989 2°54.435 3.9 340 18.6 101450 46
2011-08-02 07:06:27 51°15.003 2°54.417 4 281 18.6 101450 46
2011-08-02 07:06:32 51°15.016 2°54.399 3.6 340 18.6 101450 47
2011-08-02 07:06:38 51°15.032 2°54.376 3.9 284 18.6 101450 47
2011-08-02 07:06:43 51°15.044 2°54.356 4.1 339 18.6 101450 47
2011-08-02 07:06:47 51°15.054 2°54.341 3.4 278 18.6 101450 47
2011-08-02 07:06:52 51°15.067 2°54.321 3.3 340 18.6 101450 47
2011-08-02 07:06:57 51°15.08 2°54.303 3.9 285 18.6 101450 47
2011-08-02 07:07:03 51°15.096 2°54.28 3.7 340 18.6 101450 47
2011-08-02 07:07:07 51°15.106 2°54.265 3.5 285 18.6 101450 47
2011-08-02 07:07:12 51°15.118 2°54.246 3.9 340 18.6 101450 47
2011-08-02 07:07:17 51°15.131 2°54.226 3.8 283 18.6 101450 47
2011-08-02 07:07:23 51°15.147 2°54.204 3.5 338 18.6 101450 47
2011-08-02 07:07:27 51°15.157 2°54.19 4.2 280 18.6 101450 47
2011-08-02 07:07:32 51°15.171 2°54.174 4.1 339 18.6 101450 48
2011-08-02 07:07:37 51°15.185 2°54.157 4.4 285 18.6 101450 48
2011-08-02 07:07:42 51°15.199 2°54.141 4.1 340 18.6 101450 48
2011-08-02 07:07:47 51°15.213 2°54.125 4.3 279 18.6 101450 48
2011-08-02 07:07:52 51°15.228 2°54.109 4.5 340 18.6 101450 48
2011-08-02 07:07:57 51°15.242 2°54.094 4.1 284 18.6 101450 48
2011-08-02 07:08:02 51°15.256 2°54.078 4.9 340 18.6 101450 48
2011-08-02 07:08:07 51°15.271 2°54.063 4.5 285 18.6 101450 48
2011-08-02 07:08:12 51°15.285 2°54.047 4.1 338 18.6 101450 47
2011-08-02 07:08:17 51°15.299 2°54.031 4.5 281 18.6 101450 47
2011-08-02 07:08:22 51°15.313 2°54.014 4.5 338 18.6 101450 47
2011-08-02 07:08:27 51°15.327 2°53.997 4.6 283 18.6 101450 47
2011-08-02 07:08:32 51°15.341 2°53.979 4 337 18.6 101450 48
2011-08-02 07:08:38 51°15.357 2°53.957 3.9 285 18.6 101450 48
2011-08-02 07:08:42 51°15.367 2°53.942 4.1 337 18.6 101450 48
2011-08-02 07:08:47 51°15.38 2°53.923 5 282 18.6 101450 48
2011-08-02 07:08:52 51°15.393 2°53.905 4.5 337 18.6 101450 48
2011-08-02 07:08:58 51°15.409 2°53.883 5 279 18.6 101450 48
2011-08-02 07:09:03 51°15.423 2°53.865 4.8 335 18.5 101450 48
2011-08-02 07:09:07 51°15.434 2°53.852 5 284 18.5 101450 48
2011-08-02 07:09:12 51°15.448 2°53.835 5.7 337 18.5 101450 48
2011-08-02 07:09:17 51°15.462 2°53.818 5.4 281 18.5 101450 48
2011-08-02 07:09:23 51°15.479 2°53.799 5 337 18.5 101450 47
2011-08-02 07:09:27 51°15.491 2°53.787 5.1 280 18.5 101450 47
2011-08-02 07:09:32 51°15.506 2°53.771 4.8 337 18.5 101450 48
2011-08-02 07:09:37 51°15.52 2°53.756 4.9 284 18.5 101450 48
2011-08-02 07:09:43 51°15.538 2°53.737 6.4 337 18.5 101450 48
2011-08-02 07:09:47 51°15.549 2°53.725 5.6 285 18.5 101450 48
2011-08-02 07:09:52 51°15.564 2°53.709 5.1 337 18.4 101450 47
2011-08-02 07:09:57 51°15.579 2°53.694 6 283 18.4 101450 47
2011-08-02 07:10:02 51°15.594 2°53.678 5.5 338 18.4 101450 48
2011-08-02 07:10:07 51°15.608 2°53.663 5.1 280 18.4 101450 48
2011-08-02 07:10:12 51°15.623 2°53.647 5.4 339 18.4 101450 48
2011-08-02 07:10:17 51°15.637 2°53.631 5.1 280 18.4 101450 48
2011-08-02 07:10:22 51°15.652 2°53.615 4.6 339 18.3 101450 48
2011-08-02 07:10:27 51°15.666 2°53.599 4.7 286 18.3 101450 48
2011-08-02 07:10:32 51°15.681 2°53.583 4.9 339 18.3 101460 47
2011-08-02 07:10:37 51°15.695 2°53.565 4.5 280 18.3 101460 47
2011-08-02 07:10:42 51°15.709 2°53.548 4.3 338 18.3 101450 47
2011-08-02 07:10:47 51°15.723 2°53.531 4.5 282 18.3 101450 47
2011-08-02 07:10:52 51°15.737 2°53.514 4.2 340 18.3 101450 47
2011-08-02 07:10:57 51°15.751 2°53.496 4.2 284 18.3 101450 47
2011-08-02 07:11:02 51°15.766 2°53.48 4.2 339 18.3 101450 46
2011-08-02 07:11:07 51°15.78 2°53.464 5.3 284 18.3 101450 46
2011-08-02 07:11:12 51°15.795 2°53.448 4.3 341 18.3 101460 48
2011-08-02 07:11:18 51°15.813 2°53.43 5.1 277 18.3 101460 48
2011-08-02 07:11:22 51°15.825 2°53.419 4.9 341 18.3 101450 48
2011-08-02 07:11:27 51°15.84 2°53.405 4.1 286 18.3 101450 48
2011-08-02 07:11:32 51°15.856 2°53.391 4.2 341 18.2 101450 48
2011-08-02 07:11:37 51°15.871 2°53.378 4.4 280 18.2 101450 48
2011-08-02 07:11:42 51°15.887 2°53.365 4.3 341 18.2 101460 48
2011-08-02 07:11:47 51°15.903 2°53.352 4.8 282 18.2 101460 48
2011-08-02 07:11:52 51°15.918 2°53.34 4.6 341 18.2 101450 48
2011-08-02 07:11:57 51°15.934 2°53.327 4.4 284 18.2 101450 48
2011-08-02 07:12:02 51°15.949 2°53.314 4.1 339 18.2 101450 48
2011-08-02 07:12:07 51°15.965 2°53.301 3.8 277 18.2 101450 48
2011-08-02 07:12:12 51°15.98 2°53.288 4.3 340 18.2 101460 48
2011-08-02 07:12:17 51°15.996 2°53.274 3.6 283 18.2 101460 48
2011-08-02 07:12:22 51°16.011 2°53.26 3.7 340 18.2 101460 48
2011-08-02 07:12:27 51°16.026 2°53.246 4.3 281 18.2 101460 48
2011-08-02 07:12:32 51°16.04 2°53.231 3.5 339 18.2 101460 48
2011-08-02 07:12:38 51°16.058 2°53.212 4.3 285 18.2 101460 48
2011-08-02 07:12:42 51°16.07 2°53.2 3.9 340 18.2 101460 49
2011-08-02 07:12:47 51°16.085 2°53.185 3.8 277 18.2 101460 49
2011-08-02 07:12:52 51°16.099 2°53.17 4.3 340 18.2 101460 49
2011-08-02 07:12:57 51°16.114 2°53.156 3.6 284 18.2 101460 49
2011-08-02 07:13:02 51°16.13 2°53.142 4.5 341 18.2 101460 49
2011-08-02 07:13:07 51°16.145 2°53.128 3.8 285 18.2 101460 49
2011-08-02 07:13:12 51°16.16 2°53.113 4.5 339 18.2 101460 49
2011-08-02 07:13:17 51°16.175 2°53.099 4.2 278 18.2 101460 49
2011-08-02 07:13:22 51°16.19 2°53.084 4.2 339 18.2 101460 49
2011-08-02 07:13:27 51°16.205 2°53.069 4 283 18.2 101460 49
2011-08-02 07:13:32 51°16.22 2°53.055 4.2 340 18.2 101460 48
2011-08-02 07:13:37 51°16.235 2°53.04 3.6 283 18.2 101460 48
2011-08-02 07:13:42 51°16.25 2°53.027 4.1 338 18.2 101460 47
2011-08-02 07:13:47 51°16.266 2°53.014 3.9 277 18.2 101460 47
2011-08-02 07:13:52 51°16.281 2°53.001 4.7 338 18.2 101460 48
2011-08-02 07:13:57 51°16.297 2°52.99 4.1 284 18.2 101460 48
2011-08-02 07:14:02 51°16.313 2°52.979 4.8 339 18.2 101460 48
2011-08-02 07:14:07 51°16.329 2°52.969 4.9 282 18.2 101460 48
2011-08-02 07:14:12 51°16.345 2°52.958 4.6 337 18.2 101460 49
2011-08-02 07:14:17 51°16.362 2°52.948 4.7 284 18.2 101460 49
2011-08-02 07:14:23 51°16.381 2°52.935 4.8 337 18.2 101460 49
2011-08-02 07:14:27 51°16.394 2°52.927 5.5 277 18.2 101460 49
2011-08-02 07:14:32 51°16.41 2°52.916 4.4 337 18.2 101460 49
2011-08-02 07:14:37 51°16.426 2°52.905 5.4 282 18.2 101460 49
2011-08-02 07:14:42 51°16.442 2°52.894 4.5 338 18.2 101460 48
2011-08-02 07:14:47 51°16.458 2°52.882 4.7 284 18.2 101460 48
2011-08-02 07:14:52 51°16.473 2°52.869 4.7 338 18.3 101460 49
2011-08-02 07:14:57 51°16.489 2°52.856 4.7 278 18.3 101460 49
2011-08-02 07:15:02 51°16.504 2°52.843 5 336 18.3 101460 48
2011-08-02 07:15:07 51°16.52 2°52.83 4.9 277 18.3 101460 48
2011-08-02 07:15:12 51°16.535 2°52.817 4.9 337 18.3 101460 49
2011-08-02 07:15:17 51°16.551 2°52.805 4.7 279 18.3 101460 49
2011-08-02 07:15:22 51°16.567 2°52.793 5.1 337 18.3 101460 48
2011-08-02 07:15:27 51°16.583 2°52.782 5.1 284 18.3 101460 48
2011-08-02 07:15:32 51°16.599 2°52.771 4.4 338 18.3 101460 48
2011-08-02 07:15:37 51°16.615 2°52.762 5.7 279 18.3 101460 48
2011-08-02 07:15:42 51°16.631 2°52.752 5 337 18.3 101460 49
2011-08-02 07:15:47 51°16.647 2°52.743 4.5 284 18.3 101460 49
2011-08-02 07:15:52 51°16.664 2°52.734 4.5 337 18.3 101470 49
2011-08-02 07:15:57 51°16.68 2°52.725 6 281 18.3 101470 49
2011-08-02 07:16:02 51°16.696 2°52.716 4.1 338 18.3 101460 48
2011-08-02 07:16:07 51°16.713 2°52.707 4.7 282 18.3 101460 48
2011-08-02 07:16:12 51°16.729 2°52.698 4.6 338 18.3 101460 49
2011-08-02 07:16:17 51°16.745 2°52.689 5.1 282 18.3 101460 49
2011-08-02 07:16:23 51°16.764 2°52.678 4.2 339 18.3 101460 48
2011-08-02 07:16:27 51°16.777 2°52.67 4.4 284 18.3 101460 48
2011-08-02 07:16:32 51°16.792 2°52.66 4.6 338 18.3 101460 49
2011-08-02 07:16:37 51°16.808 2°52.649 4.2 282 18.3 101460 49
2011-08-02 07:16:42 51°16.824 2°52.638 4.4 339 18.3 101460 48
2011-08-02 07:16:47 51°16.839 2°52.628 4.2 281 18.3 101460 48
2011-08-02 07:16:52 51°16.855 2°52.618 4 340 18.3 101460 49
2011-08-02 07:16:57 51°16.871 2°52.61 4.6 284 18.3 101460 49
2011-08-02 07:17:02 51°16.887 2°52.603 4.8 340 18.3 101460 49
2011-08-02 07:17:07 51°16.904 2°52.598 5.2 276 18.3 101460 49
2011-08-02 07:17:12 51°16.92 2°52.594 5.1 340 18.3 101470 48
2011-08-02 07:17:18 51°16.94 2°52.589 5.3 279 18.3 101470 48
2011-08-02 07:17:22 51°16.954 2°52.586 5.6 340 18.3 101460 49
2011-08-02 07:17:27 51°16.97 2°52.582 5.1 285 18.3 101460 49
2011-08-02 07:17:32 51°16.987 2°52.58 4.5 340 18.3 101470 48
2011-08-02 07:17:38 51°17.007 2°52.576 5 279 18.3 101470 48
2011-08-02 07:17:42 51°17.02 2°52.574 5.4 342 18.2 101470 48
2011-08-02 07:17:47 51°17.037 2°52.57 4.3 280 18.2 101470 48
2011-08-02 07:17:52 51°17.053 2°52.567 5 342 18.2 101470 49
2011-08-02 07:17:58 51°17.073 2°52.563 5.2 284 18.2 101470 49
2011-08-02 07:18:02 51°17.086 2°52.56 4.4 344 18.2 101470 49
2011-08-02 07:18:07 51°17.103 2°52.556 5.4 278 18.2 101470 49
2011-08-02 07:18:12 51°17.119 2°52.552 5.1 343 18.2 101470 49
2011-08-02 07:18:17 51°17.136 2°52.548 4.5 282 18.2 101470 49
2011-08-02 07:18:22 51°17.152 2°52.544 5.7 345 18.2 101470 49
2011-08-02 07:18:27 51°17.169 2°52.54 4.4 278 18.2 101470 49
2011-08-02 07:18:32 51°17.186 2°52.537 4.8 343 18.2 101470 50
2011-08-02 07:18:37 51°17.202 2°52.533 5.7 283 18.2 101470 50
2011-08-02 07:18:42 51°17.219 2°52.53 4.7 343 18.2 101460 49
2011-08-02 07:18:47 51°17.236 2°52.526 5.4 284 18.2 101460 49
2011-08-02 07:18:52 51°17.252 2°52.522 4.6 343 18.2 101460 50
2011-08-02 07:18:57 51°17.269 2°52.517 4.8 284 18.2 101460 50
2011-08-02 07:19:02 51°17.286 2°52.512 4.4 343 18.1 101470 47
2011-08-02 07:19:07 51°17.302 2°52.508 5 285 18.1 101470 47
2011-08-02 07:19:12 51°17.319 2°52.503 5 344 18.1 101470 48
2011-08-02 07:19:17 51°17.335 2°52.498 5.1 277 18.1 101470 48
2011-08-02 07:19:22 51°17.352 2°52.493 4.7 344 18.1 101460 50
2011-08-02 07:19:27 51°17.369 2°52.488 4.9 283 18.1 101460 50
2011-08-02 07:19:32 51°17.385 2°52.482 4.7 344 18.1 101470 47
2011-08-02 07:19:37 51°17.402 2°52.477 4.6 278 18.1 101470 47
2011-08-02 07:19:42 51°17.418 2°52.472 4.9 344 18.1 101470 49
2011-08-02 07:19:47 51°17.435 2°52.467 5.5 283 18.1 101470 49
2011-08-02 07:19:52 51°17.452 2°52.462 4.5 345 18 101470 49
2011-08-02 07:19:57 51°17.468 2°52.456 5.1 282 18 101470 49
2011-08-02 07:20:02 51°17.485 2°52.45 5 344 18 101470 50
2011-08-02 07:20:07 51°17.501 2°52.444 4.6 283 18 101470 50
2011-08-02 07:20:12 51°17.518 2°52.437 4.3 345 18 101470 49
2011-08-02 07:20:17 51°17.534 2°52.431 4.6 283 18 101470 49
2011-08-02 07:20:22 51°17.551 2°52.424 4.7 344 18 101470 50
2011-08-02 07:20:27 51°17.567 2°52.416 4.3 284 18 101470 50
2011-08-02 07:20:32 51°17.583 2°52.408 4.1 342 18 101470 49
2011-08-02 07:20:37 51°17.6 2°52.4 4.8 286 18 101470 49
2011-08-02 07:20:43 51°17.619 2°52.39 4.6 343 18 101470 50
2011-08-02 07:20:47 51°17.632 2°52.384 4.1 281 18 101470 50
2011-08-02 07:20:52 51°17.648 2°52.375 3.9 343 18 101470 49
2011-08-02 07:20:57 51°17.664 2°52.367 4.4 284 18 101470 49
2011-08-02 07:21:02 51°17.681 2°52.359 4 344 18 101470 50
2011-08-02 07:21:07 51°17.697 2°52.351 4.6 284 18 101470 50
2011-08-02 07:21:12 51°17.713 2°52.344 4.8 344 18 101470 50
2011-08-02 07:21:17 51°17.729 2°52.337 4.6 278 18 101470 50
2011-08-02 07:21:22 51°17.746 2°52.329 4.7 341 18 101470 50
2011-08-02 07:21:27 51°17.762 2°52.322 4.8 277 18 101470 50
2011-08-02 07:21:32 51°17.778 2°52.315 4.2 343 18 101470 50
2011-08-02 07:21:38 51°17.798 2°52.305 4.2 285 18 101470 50
2011-08-02 07:21:42 51°17.811 2°52.3 4.2 344 18 101470 49
2011-08-02 07:21:47 51°17.827 2°52.292 4.8 284 18 101470 49
2011-08-02 07:21:52 51°17.843 2°52.285 4.4 343 18 101470 50
2011-08-02 07:21:58 51°17.863 2°52.277 5.4 277 18 101470 50
2011-08-02 07:22:02 51°17.876 2°52.271 4.8 344 18 101470 50
2011-08-02 07:22:07 51°17.893 2°52.264 5.3 284 18 101470 50
2011-08-02 07:22:12 51°17.909 2°52.257 4.7 343 17.9 101470 49
2011-08-02 07:22:18 51°17.929 2°52.249 4.1 277 17.9 101470 49
2011-08-02 07:22:22 51°17.942 2°52.244 4.6 344 18 101470 49
2011-08-02 07:22:27 51°17.959 2°52.237 4.6 278 18 101470 49
2011-08-02 07:22:32 51°17.976 2°52.23 4.1 343 18 101470 50
2011-08-02 07:22:37 51°17.992 2°52.224 4.8 278 18 101470 50
2011-08-02 07:22:42 51°18.009 2°52.217 4.3 344 18 101470 50
2011-08-02 07:22:47 51°18.025 2°52.211 5.2 279 18 101470 50
2011-08-02 07:22:52 51°18.042 2°52.205 5.1 344 17.9 101470 50
2011-08-02 07:22:57 51°18.059 2°52.199 5 279 17.9 101470 50
2011-08-02 07:23:02 51°18.075 2°52.193 5.3 342 18 101470 49
2011-08-02 07:23:07 51°18.092 2°52.188 4.4 280 18 101470 49
2011-08-02 07:23:12 51°18.109 2°52.182 4.9 343 17.9 101470 50
2011-08-02 07:23:17 51°18.125 2°52.177 5 277 17.9 101470 50
2011-08-02 07:23:22 51°18.142 2°52.172 5.1 343 17.9 101470 50
2011-08-02 07:23:27 51°18.159 2°52.168 4.6 280 17.9 101470 50
2011-08-02 07:23:32 51°18.176 2°52.164 4.2 344 17.9 101480 50
2011-08-02 07:23:37 51°18.192 2°52.159 4.6 278 17.9 101480 50
2011-08-02 07:23:42 51°18.209 2°52.155 4.8 345 18 101470 50
2011-08-02 07:23:47 51°18.226 2°52.15 5 284 18 101470 50
2011-08-02 07:23:52 51°18.242 2°52.146 4.3 343 18 101470 50
2011-08-02 07:23:57 51°18.259 2°52.141 5 278 18 101470 50
2011-08-02 07:24:02 51°18.276 2°52.136 5.1 343 17.9 101470 49
2011-08-02 07:24:07 51°18.292 2°52.131 4.7 278 17.9 101470 49
2011-08-02 07:24:12 51°18.309 2°52.126 4.7 345 18 101470 50
2011-08-02 07:24:17 51°18.326 2°52.122 4.6 285 18 101470 50
2011-08-02 07:24:22 51°18.342 2°52.118 5.1 345 18 101470 49
2011-08-02 07:24:27 51°18.359 2°52.114 5.1 278 18 101470 49
2011-08-02 07:24:32 51°18.376 2°52.11 4.4 344 18 101470 50
2011-08-02 07:24:37 51°18.393 2°52.107 4.8 282 18 101470 50
2011-08-02 07:24:42 51°18.41 2°52.104 5.3 342 17.9 101470 50
2011-08-02 07:24:47 51°18.426 2°52.1 4.8 278 17.9 101470 50
2011-08-02 07:24:52 51°18.443 2°52.096 5.1 342 17.9 101470 49
2011-08-02 07:24:57 51°18.46 2°52.091 4.6 283 17.9 101470 49
2011-08-02 07:25:02 51°18.477 2°52.086 4.8 342 17.9 101470 51
2011-08-02 07:25:07 51°18.493 2°52.08 5.1 283 17.9 101470 51
2011-08-02 07:25:12 51°18.51 2°52.076 4.9 343 18 101470 51
2011-08-02 07:25:17 51°18.527 2°52.072 4.5 278 18 101470 51
2011-08-02 07:25:22 51°18.544 2°52.067 5.5 343 18 101480 51
2011-08-02 07:25:27 51°18.561 2°52.063 4.9 278 18 101480 51
2011-08-02 07:25:32 51°18.577 2°52.059 5.4 342 18 101480 50
2011-08-02 07:25:37 51°18.594 2°52.055 5.2 286 18 101480 50
2011-08-02 07:25:42 51°18.611 2°52.05 4.7 342 18 101480 50
2011-08-02 07:25:47 51°18.628 2°52.044 5.4 277 18 101480 50
2011-08-02 07:25:52 51°18.644 2°52.038 5 343 18 101470 50
2011-08-02 07:25:57 51°18.661 2°52.031 5.3 279 18 101470 50
2011-08-02 07:26:02 51°18.678 2°52.023 4.8 343 18 101480 50
2011-08-02 07:26:07 51°18.694 2°52.014 4.9 278 18 101480 50
2011-08-02 07:26:12 51°18.71 2°52.005 5 341 18 101470 50
2011-08-02 07:26:17 51°18.726 2°51.995 4.3 285 18 101470 50
2011-08-02 07:26:22 51°18.743 2°51.986 4.5 341 18 101480 50
2011-08-02 07:26:27 51°18.759 2°51.976 4.4 279 18 101480 50
2011-08-02 07:26:32 51°18.775 2°51.966 5 339 18 101480 51
2011-08-02 07:26:37 51°18.791 2°51.955 4 278 18 101480 51
2011-08-02 07:26:42 51°18.807 2°51.945 5 341 18 101480 51
2011-08-02 07:26:47 51°18.823 2°51.936 4.3 279 18 101480 51
2011-08-02 07:26:52 51°18.84 2°51.926 3.8 341 18 101480 50
2011-08-02 07:26:57 51°18.856 2°51.917 4.6 279 18 101480 50
2011-08-02 07:27:02 51°18.872 2°51.908 4.6 341 18 101480 49
2011-08-02 07:27:07 51°18.889 2°51.899 4.1 284 18 101480 49
2011-08-02 07:27:12 51°18.905 2°51.891 4.6 340 18 101480 49
2011-08-02 07:27:17 51°18.922 2°51.883 4.3 280 18 101480 49
2011-08-02 07:27:22 51°18.938 2°51.876 4.3 341 18.1 101480 50
2011-08-02 07:27:27 51°18.955 2°51.869 4.3 281 18.1 101480 50
2011-08-02 07:27:32 51°18.972 2°51.863 5 340 18 101480 49
2011-08-02 07:27:37 51°18.988 2°51.856 4.4 278 18 101480 49
2011-08-02 07:27:42 51°19.005 2°51.85 4.3 340 18.1 101480 50
2011-08-02 07:27:47 51°19.022 2°51.843 5.5 278 18.1 101480 50
2011-08-02 07:27:52 51°19.038 2°51.836 4.1 339 18.1 101480 51
2011-08-02 07:27:57 51°19.055 2°51.828 4.5 279 18.1 101480 51
2011-08-02 07:28:02 51°19.071 2°51.82 4.8 341 18.1 101480 50
2011-08-02 07:28:07 51°19.088 2°51.811 4.3 285 18.1 101480 50
2011-08-02 07:28:12 51°19.104 2°51.802 4 340 18.1 101470 50
2011-08-02 07:28:17 51°19.121 2°51.792 4.5 282 18.1 101470 50
2011-08-02 07:28:22 51°19.137 2°51.783 4.5 338 18.1 101480 50
2011-08-02 07:28:27 51°19.153 2°51.773 4.2 284 18.1 101480 50
2011-08-02 07:28:32 51°19.17 2°51.763 4.7 339 18.1 101480 50
2011-08-02 07:28:37 51°19.186 2°51.753 4.4 285 18.1 101480 50
2011-08-02 07:28:42 51°19.202 2°51.744 5 341 18.1 101480 51
2011-08-02 07:28:47 51°19.219 2°51.735 4.9 285 18.1 101480 51
2011-08-02 07:28:52 51°19.235 2°51.726 4.9 339 18.1 101480 50
2011-08-02 07:28:57 51°19.251 2°51.716 4.8 284 18.1 101480 50
2011-08-02 07:29:02 51°19.268 2°51.707 4.6 339 18.1 101480 51
2011-08-02 07:29:07 51°19.284 2°51.697 4.1 286 18.1 101480 51
2011-08-02 07:29:12 51°19.3 2°51.688 4.8 339 18.1 101480 50
2011-08-02 07:29:17 51°19.317 2°51.678 5.1 285 18.1 101480 50
2011-08-02 07:29:22 51°19.333 2°51.669 4.7 338 18.1 101480 51
2011-08-02 07:29:27 51°19.35 2°51.66 4.8 279 18.1 101480 51
2011-08-02 07:29:32 51°19.366 2°51.652 4.9 339 18.1 101480 51
2011-08-02 07:29:37 51°19.383 2°51.643 4.6 -999 18.1 101480 51
2011-08-02 07:29:42 51°19.399 2°51.635 4.7 340 18.1 101480 49
2011-08-02 07:29:47 51°19.416 2°51.626 5.1 284 18.1 101480 49
2011-08-02 07:29:52 51°19.433 2°51.618 4.4 340 18.2 101480 50
2011-08-02 07:29:57 51°19.449 2°51.609 4.6 284 18.2 101480 50
2011-08-02 07:30:02 51°19.465 2°51.6 4.3 340 18.2 101480 50
2011-08-02 07:30:07 51°19.482 2°51.591 3.7 285 18.2 101480 50
2011-08-02 07:30:12 51°19.498 2°51.582 3.8 340 18.2 101480 48
2011-08-02 07:30:17 51°19.515 2°51.573 4 283 18.2 101480 48
2011-08-02 07:30:22 51°19.531 2°51.565 4.8 340 18.2 101490 51
2011-08-02 07:30:27 51°19.547 2°51.556 4.8 283 18.2 101490 51
2011-08-02 07:30:32 51°19.564 2°51.548 4.4 339 18.2 101480 50
2011-08-02 07:30:37 51°19.58 2°51.54 4.9 283 18.2 101480 50
2011-08-02 07:30:42 51°19.597 2°51.532 4.4 340 18.2 101480 50
2011-08-02 07:30:47 51°19.613 2°51.524 4.3 283 18.2 101480 50
2011-08-02 07:30:52 51°19.63 2°51.517 5.9 339 18.2 101480 51
2011-08-02 07:30:57 51°19.646 2°51.511 5.2 284 18.2 101480 51
2011-08-02 07:31:02 51°19.663 2°51.504 4.2 340 18.2 101480 50
2011-08-02 07:31:07 51°19.68 2°51.498 4.6 284 18.2 101480 50
2011-08-02 07:31:12 51°19.696 2°51.492 4.6 340 18.3 101480 51
2011-08-02 07:31:17 51°19.713 2°51.487 5.2 279 18.3 101480 51
2011-08-02 07:31:22 51°19.73 2°51.481 4.5 341 18.2 101480 50
2011-08-02 07:31:27 51°19.746 2°51.474 4.8 284 18.2 101480 50
2011-08-02 07:31:32 51°19.763 2°51.468 4.2 339 18.2 101480 51
2011-08-02 07:31:37 51°19.78 2°51.461 4.6 -999 18.2 101480 51
2011-08-02 07:31:42 51°19.796 2°51.454 4.6 339 18.3 101480 50
2011-08-02 07:31:47 51°19.813 2°51.447 5.4 283 18.3 101480 50
2011-08-02 07:31:52 51°19.829 2°51.439 4.3 339 18.2 101480 50
2011-08-02 07:31:57 51°19.846 2°51.431 4.8 279 18.2 101480 50
2011-08-02 07:32:02 51°19.862 2°51.422 4.3 340 18.2 101490 51
2011-08-02 07:32:07 51°19.879 2°51.414 4.7 279 18.2 101490 51
2011-08-02 07:32:12 51°19.895 2°51.405 5 339 18.3 101490 50
2011-08-02 07:32:17 51°19.911 2°51.395 4.2 280 18.3 101490 50
2011-08-02 07:32:22 51°19.927 2°51.386 4.1 340 18.3 101480 49
2011-08-02 07:32:27 51°19.944 2°51.377 4.9 285 18.3 101480 49
2011-08-02 07:32:32 51°19.96 2°51.368 5.5 339 18.3 101480 50
2011-08-02 07:32:37 51°19.977 2°51.359 4.3 285 18.3 101480 50
2011-08-02 07:32:42 51°19.993 2°51.35 4.2 340 18.3 101480 50
2011-08-02 07:32:47 51°20.009 2°51.341 5.4 278 18.3 101480 50
2011-08-02 07:32:52 51°20.026 2°51.332 5 340 18.3 101480 49
2011-08-02 07:32:57 51°20.042 2°51.324 5.3 279 18.3 101480 49
2011-08-02 07:33:02 51°20.059 2°51.316 4.4 340 18.3 101480 50
2011-08-02 07:33:07 51°20.075 2°51.309 5.2 283 18.3 101480 50
2011-08-02 07:33:12 51°20.092 2°51.301 4.1 338 18.3 101490 50
2011-08-02 07:33:17 51°20.108 2°51.293 3.9 280 18.3 101490 50
2011-08-02 07:33:22 51°20.125 2°51.284 4.2 340 18.3 101480 51
2011-08-02 07:33:27 51°20.141 2°51.276 4.3 278 18.3 101480 51
2011-08-02 07:33:32 51°20.158 2°51.267 4.6 338 18.3 101490 50
2011-08-02 07:33:37 51°20.174 2°51.258 5.1 279 18.3 101490 50
2011-08-02 07:33:42 51°20.191 2°51.249 4.6 340 18.3 101490 50
2011-08-02 07:33:47 51°20.207 2°51.24 4.3 279 18.3 101490 50
2011-08-02 07:33:52 51°20.224 2°51.23 4.1 339 18.3 101480 51
2011-08-02 07:33:57 51°20.24 2°51.221 4 276 18.3 101480 51
2011-08-02 07:34:02 51°20.257 2°51.212 4.4 340 18.3 101490 50
2011-08-02 07:34:07 51°20.273 2°51.204 4.9 286 18.3 101490 50
2011-08-02 07:34:12 51°20.29 2°51.196 4.3 339 18.3 101490 50
2011-08-02 07:34:17 51°20.307 2°51.188 4.5 279 18.3 101490 50
2011-08-02 07:34:22 51°20.323 2°51.181 4.9 339 18.3 101490 50
2011-08-02 07:34:27 51°20.34 2°51.174 4.6 284 18.3 101490 50
2011-08-02 07:34:32 51°20.357 2°51.167 5.1 339 18.3 101490 50
2011-08-02 07:34:37 51°20.374 2°51.16 4.4 278 18.3 101490 50
2011-08-02 07:34:42 51°20.391 2°51.153 4.1 339 18.3 101490 51
2011-08-02 07:34:47 51°20.408 2°51.146 4.5 280 18.3 101490 51
2011-08-02 07:34:52 51°20.424 2°51.138 4 340 18.3 101490 50
2011-08-02 07:34:57 51°20.441 2°51.131 4.7 277 18.3 101490 50
2011-08-02 07:35:02 51°20.457 2°51.123 4.1 340 18.3 101490 49
2011-08-02 07:35:07 51°20.474 2°51.114 3.8 278 18.3 101490 49
2011-08-02 07:35:12 51°20.491 2°51.106 4.5 340 18.3 101490 50
2011-08-02 07:35:17 51°20.507 2°51.097 4.1 277 18.3 101490 50
2011-08-02 07:35:22 51°20.524 2°51.089 4.8 340 18.3 101490 50
2011-08-02 07:35:27 51°20.54 2°51.08 3.9 283 18.3 101490 50
2011-08-02 07:35:32 51°20.557 2°51.071 4.4 341 18.3 101490 49
2011-08-02 07:35:37 51°20.573 2°51.062 4.6 -999 18.3 101490 49
2011-08-02 07:35:42 51°20.59 2°51.052 4.3 339 18.3 101490 51
2011-08-02 07:35:47 51°20.606 2°51.042 4.7 282 18.3 101490 51
2011-08-02 07:35:52 51°20.622 2°51.033 4.5 340 18.3 101490 50
2011-08-02 07:35:57 51°20.639 2°51.024 4.2 283 18.3 101490 50
2011-08-02 07:36:02 51°20.655 2°51.015 4.1 340 18.3 101490 51
2011-08-02 07:36:07 51°20.672 2°51.006 4.9 283 18.3 101490 51
2011-08-02 07:36:12 51°20.688 2°50.998 4.9 339 18.3 101490 50
2011-08-02 07:36:17 51°20.705 2°50.99 4.1 276 18.3 101490 50
2011-08-02 07:36:22 51°20.721 2°50.982 4.2 338 18.3 101490 50
2011-08-02 07:36:27 51°20.738 2°50.975 4.4 276 18.3 101490 50
2011-08-02 07:36:32 51°20.755 2°50.967 4.6 339 18.3 101490 50
2011-08-02 07:36:37 51°20.771 2°50.96 5 280 18.3 101490 50
2011-08-02 07:36:42 51°20.788 2°50.953 4.3 341 18.3 101490 51
2011-08-02 07:36:47 51°20.805 2°50.947 4.4 283 18.3 101490 51
2011-08-02 07:36:52 51°20.822 2°50.94 4.5 341 18.3 101490 50
2011-08-02 07:36:57 51°20.838 2°50.933 4.6 279 18.3 101490 50
2011-08-02 07:37:02 51°20.855 2°50.927 4.9 341 18.3 101490 50
2011-08-02 07:37:07 51°20.872 2°50.92 4 283 18.3 101490 50
2011-08-02 07:37:12 51°20.889 2°50.914 4.9 340 18.3 101490 51
2011-08-02 07:37:17 51°20.906 2°50.907 4.5 278 18.3 101490 51
2011-08-02 07:37:22 51°20.922 2°50.899 4.6 341 18.3 101490 50
2011-08-02 07:37:27 51°20.939 2°50.892 4.6 277 18.3 101490 50
2011-08-02 07:37:32 51°20.956 2°50.883 5.2 340 18.3 101490 50
2011-08-02 07:37:37 51°20.973 2°50.875 4.8 278 18.3 101490 50
2011-08-02 07:37:42 51°20.989 2°50.866 4 340 18.3 101490 49
2011-08-02 07:37:47 51°21.006 2°50.857 4.4 282 18.3 101490 49
2011-08-02 07:37:52 51°21.022 2°50.847 4.6 339 18.3 101490 50
2011-08-02 07:37:57 51°21.039 2°50.838 4.9 283 18.3 101490 50
2011-08-02 07:38:02 51°21.055 2°50.828 4.4 338 18.3 101490 50
2011-08-02 07:38:07 51°21.072 2°50.819 4.8 276 18.3 101490 50
2011-08-02 07:38:12 51°21.089 2°50.81 4 339 18.3 101490 49
2011-08-02 07:38:17 51°21.105 2°50.801 4.6 280 18.3 101490 49
2011-08-02 07:38:22 51°21.122 2°50.792 5 339 18.3 101490 51
2011-08-02 07:38:27 51°21.138 2°50.783 4.3 277 18.3 101490 51
2011-08-02 07:38:32 51°21.155 2°50.774 4.8 340 18.4 101490 50
2011-08-02 07:38:37 51°21.172 2°50.765 4.8 281 18.4 101490 50
2011-08-02 07:38:42 51°21.189 2°50.756 5.2 337 18.3 101490 51
2011-08-02 07:38:47 51°21.206 2°50.747 4.2 284 18.3 101490 51
2011-08-02 07:38:52 51°21.222 2°50.738 4.9 337 18.3 101490 50
2011-08-02 07:38:57 51°21.239 2°50.729 5.1 278 18.3 101490 50
2011-08-02 07:39:02 51°21.256 2°50.721 4.3 338 18.3 101490 50
2011-08-02 07:39:07 51°21.273 2°50.714 4.7 278 18.3 101490 50
2011-08-02 07:39:12 51°21.29 2°50.707 5.2 339 18.4 101490 50
2011-08-02 07:39:17 51°21.307 2°50.7 4.9 283 18.4 101490 50
2011-08-02 07:39:22 51°21.324 2°50.694 3.9 339 18.4 101490 50
2011-08-02 07:39:27 51°21.341 2°50.687 4.6 278 18.4 101490 50
2011-08-02 07:39:32 51°21.358 2°50.68 4.7 338 18.4 101490 50
2011-08-02 07:39:37 51°21.375 2°50.672 4.4 280 18.4 101490 50
2011-08-02 07:39:42 51°21.392 2°50.664 4.9 339 18.4 101490 50
2011-08-02 07:39:47 51°21.409 2°50.657 3.9 278 18.4 101490 50
2011-08-02 07:39:52 51°21.425 2°50.649 5.1 339 18.3 101490 50
2011-08-02 07:39:57 51°21.442 2°50.641 5.4 281 18.3 101490 50
2011-08-02 07:40:02 51°21.459 2°50.633 4.4 338 18.4 101490 50
2011-08-02 07:40:07 51°21.476 2°50.624 4.4 282 18.4 101490 50
2011-08-02 07:40:12 51°21.493 2°50.615 5.4 337 18.4 101490 50
2011-08-02 07:40:17 51°21.51 2°50.606 4 284 18.4 101490 50
2011-08-02 07:40:22 51°21.526 2°50.596 4.4 337 18.4 101490 51
2011-08-02 07:40:27 51°21.543 2°50.587 4.6 284 18.4 101490 51
2011-08-02 07:40:32 51°21.559 2°50.577 4.7 336 18.4 101490 50
2011-08-02 07:40:37 51°21.576 2°50.568 4.5 276 18.4 101490 50
2011-08-02 07:40:42 51°21.593 2°50.559 4.7 338 18.4 101500 50
2011-08-02 07:40:47 51°21.609 2°50.55 4.8 283 18.4 101500 50
2011-08-02 07:40:52 51°21.626 2°50.541 4.5 338 18.4 101500 49
2011-08-02 07:40:57 51°21.643 2°50.534 4.5 277 18.4 101500 49
2011-08-02 07:41:02 51°21.66 2°50.526 4.7 339 18.4 101490 51
2011-08-02 07:41:07 51°21.677 2°50.52 4.5 283 18.4 101490 51
2011-08-02 07:41:12 51°21.694 2°50.513 4.9 339 18.4 101500 51
2011-08-02 07:41:17 51°21.711 2°50.506 4.6 284 18.4 101500 51
2011-08-02 07:41:22 51°21.728 2°50.499 4.2 339 18.4 101490 51
2011-08-02 07:41:27 51°21.744 2°50.492 4.5 277 18.4 101490 51
2011-08-02 07:41:32 51°21.761 2°50.485 4.1 339 18.4 101500 50
2011-08-02 07:41:37 51°21.778 2°50.478 4.2 285 18.4 101500 50
2011-08-02 07:41:42 51°21.795 2°50.47 5.2 340 18.4 101490 51
2011-08-02 07:41:47 51°21.812 2°50.462 4.5 285 18.4 101490 51
2011-08-02 07:41:52 51°21.828 2°50.454 4.5 339 18.4 101500 50
2011-08-02 07:41:57 51°21.845 2°50.445 4.2 284 18.4 101500 50
2011-08-02 07:42:02 51°21.862 2°50.435 4.7 338 18.4 101500 50
2011-08-02 07:42:07 51°21.878 2°50.426 4.1 285 18.4 101500 50
2011-08-02 07:42:12 51°21.895 2°50.416 4 338 18.4 101500 51
2011-08-02 07:42:17 51°21.912 2°50.406 3.9 279 18.4 101500 51
2011-08-02 07:42:22 51°21.928 2°50.396 5.2 338 18.4 101500 50
2011-08-02 07:42:27 51°21.945 2°50.386 4.3 279 18.4 101500 50
2011-08-02 07:42:32 51°21.961 2°50.377 4.2 336 18.4 101490 50
2011-08-02 07:42:37 51°21.978 2°50.367 4.2 279 18.4 101490 50
2011-08-02 07:42:42 51°21.995 2°50.359 4.5 338 18.4 101490 51
2011-08-02 07:42:47 51°22.011 2°50.35 4.2 278 18.4 101490 51
2011-08-02 07:42:52 51°22.028 2°50.342 4.1 338 18.4 101490 51
2011-08-02 07:42:57 51°22.045 2°50.335 4.2 281 18.4 101490 51
2011-08-02 07:43:02 51°22.062 2°50.328 4.6 337 18.4 101500 51
2011-08-02 07:43:07 51°22.079 2°50.321 4.8 285 18.4 101500 51
2011-08-02 07:43:12 51°22.096 2°50.314 5.4 340 18.4 101490 50
2011-08-02 07:43:17 51°22.113 2°50.307 4.5 278 18.4 101490 50
2011-08-02 07:43:22 51°22.13 2°50.301 5.1 338 18.4 101490 50
2011-08-02 07:43:27 51°22.147 2°50.294 4.3 284 18.4 101490 50
2011-08-02 07:43:32 51°22.164 2°50.287 4.7 339 18.4 101500 48
2011-08-02 07:43:37 51°22.181 2°50.28 4.7 -999 18.4 101500 48